Regional Weather Roundup
Issued by NWS

Home | Current Version | Previous Version | Graphics & Text | Print | Product List | Glossary On
Versions: 1 2 3 4 5 6 7 8 9 10 11 12 13 14 15 16 17 18 19 20 21 22 23 24 25 26 27 28 29 30 31 32 33 34 35 36 37 38 39 40 41 42 43 44 45 46 47 48 49 50
000
ASUS43 KBIS 231610
RWRND

NORTH DAKOTA REGIONAL WEATHER ROUNDUP
NATIONAL WEATHER SERVICE BISMARCK ND
1000 AM CST THU NOV 23 2017

NOTE: "FAIR" INDICATES FEW OR NO CLOUDS BELOW 12,000 FEET WITH NO
SIGNIFICANT WEATHER AND/OR OBSTRUCTIONS TO VISIBILITY.


NDZ001>003-009>011-017-231700-
NORTHWEST NORTH DAKOTA

CITY           SKY/WX    TMP DP  RH WIND       PRES   REMARKS
WILLISTON      CLOUDY    42  38  85 SW8       29.67F
MINOT          CLOUDY    43  36  76 SW10      29.65F
MINOT AFB      CLOUDY    41  36  83 SW6       29.63F
$$

NDZ018>021-031>035-040>046-231700-
SOUTHWEST NORTH DAKOTA

CITY           SKY/WX    TMP DP  RH WIND       PRES   REMARKS
BISMARCK       CLOUDY    36  32  85 E3        29.77F
DICKINSON      CLOUDY    51  39  63 W12       29.74F
GARRISON         N/A     36  36 100 S3        29.70F
HETTINGER ARPT CLOUDY    48  39  71 W7        29.83F
$$

NDZ004>008-012>016-024-026-027-054-231700-
NORTHEAST NORTH DAKOTA

CITY           SKY/WX    TMP DP  RH WIND       PRES   REMARKS
GRAND FORKS    CLOUDY    31  29  92 S10       29.83F
GRND FRKS AFB  CLOUDY    31  30  94 S7        29.81F
DEVILS LAKE    SUNNY     25  23  92 SE13      29.75F WCI  14
$$

NDZ022-023-025-028>030-036>039-047>053-231700-
SOUTHEAST NORTH DAKOTA

CITY           SKY/WX    TMP DP  RH WIND       PRES   REMARKS
FARGO          CLOUDY    29  28  96 S10       29.85F FOG     WCI  20
JAMESTOWN      CLOUDY    34  28  79 S12       29.76F
$$




USA.gov is the U.S. government's official web portal to all federal, state and local government web resources and services.